Regional Weather Roundup
Issued by NWS

Home | Current Version | Previous Version | Text Only | Print | Product List | Glossary On
Versions: 1 2 3 4 5 6 7 8 9 10 11 12 13 14 15 16 17 18 19 20 21 22 23 24 25 26 27 28 29 30 31 32 33 34 35 36 37 38 39 40 41 42 43 44 45 46 47
000
ASUS45 KREV 011610
RWRNV
NEVADA REGIONAL WEATHER ROUNDUP
NATIONAL WEATHER SERVICE RENO NV
900 AM PDT WED OCT 01 2014

NOTE: "FAIR" INDICATES FEW OR NO CLOUDS BELOW 12,000 FEET WITH NO
SIGNIFICANT WEATHER AND/OR OBSTRUCTIONS TO VISIBILITY.

NVZ001-003-004-011700-
WESTERN NEVADA

CITY           SKY/WX    TMP DP  RH WIND       PRES   REMARKS
RENO           SUNNY     50  34  54 NE3       30.21R
CARSON CITY    FAIR      48  27  43 CALM      30.21R
MINDEN         FAIR      45  30  57 NW3       30.22
SLIDE MTN        N/A     32  21  64 E21         N/A
PYRAMID LAKE     N/A     52 N/A N/A SE13        N/A
FALLON         SUNNY     50  32  50 NE5       30.20R
LOVELOCK       SUNNY     50  33  52 NE6       30.20R
HAWTHORNE      SUNNY     54  30  40 NW9       30.20R
$$

NVZ002-CAZ072-073-011700-
NORTHERN AND CENTRAL SIERRA

CITY           SKY/WX    TMP DP  RH WIND       PRES   REMARKS
S. LAKE TAHOE  SUNNY     44  30  57 S3        30.18R
TRUCKEE        SUNNY     39  32  75 CALM      30.19S
SQUAW VLY 8000 NOT AVBL
BLUE CANYON    SUNNY     52  23  32 E18G35    30.05S
MAMMOTH LAKES  FAIR      46  28  49 W9        30.21S
BRIDGEPORT     FAIR      38  29  70 CALM      30.20S
$$

NVZ030-031-036-011700-
NORTHERN NEVADA

CITY           SKY/WX    TMP DP  RH WIND       PRES   REMARKS
ELKO           SUNNY     43  31  62 SW6       30.18R
WINNEMUCCA     SUNNY     45  35  68 VRB3      30.21R
WENDOVER       SUNNY     50  28  43 NW21G28   30.12R
$$

NVZ035-037-011700-
CENTRAL NEVADA

CITY           SKY/WX    TMP DP  RH WIND       PRES   REMARKS
ELY            SUNNY     44  28  53 N12       30.15R
EUREKA           N/A     44  29  55 VRB3      30.18R
$$

NVZ013-014-011700-
SOUTH CENTRAL NEVADA

CITY           SKY/WX    TMP DP  RH WIND       PRES   REMARKS
TONOPAH        SUNNY     53  29  39 N13       30.16R
$$

NVZ017-020-022-011700-
SOUTHERN NEVADA

CITY           SKY/WX    TMP DP  RH WIND       PRES   REMARKS
LAS VEGAS      SUNNY     77  36  22 N16       29.88R
N. LAS VEGAS   SUNNY     76  35  22 N15       29.89R
NELLIS AFB     SUNNY     76  40  27 NE18      29.89R
HENDERSON      SUNNY     74  38  27 NE10      29.93R
MERCURY        MOSUNNY   67  35  30 NE14      30.00R
$$


USA.gov is the U.S. government's official web portal to all federal, state and local government web resources and services.